This is the latest recevied weather packets stored in our database for station/object DK4DO-10. If no packets are shown the sender has not sent any weather packets the latest 10 day(s).
| Time | Temp. | Humidity | Pressure | Rain* | Wind** | Luminosity | Snow |
|---|---|---|---|---|---|---|---|
| 1777993985 | 16.67° C | 42% | 1003.3 hPa | - | - | - | - |
| 1777993385 | 16.67° C | 43% | 1003.2 hPa | - | - | - | - |
| 1777992785 | 16.67° C | 44% | 1003.2 hPa | - | - | - | - |
| 1777992185 | 15.56° C | 44% | 1003.2 hPa | - | - | - | - |
| 1777991584 | 16.11° C | 44% | 1003.3 hPa | - | - | - | - |
| 1777990984 | 15.56° C | 45% | 1003.5 hPa | - | - | - | - |
| 1777990384 | 16.11° C | 44% | 1003.6 hPa | - | - | - | - |
| 1777989784 | 16.11° C | 44% | 1003.6 hPa | - | - | - | - |
| 1777989184 | 16.67° C | 43% | 1003.6 hPa | - | - | - | - |
| 1777988583 | 17.22° C | 41% | 1003.5 hPa | - | - | - | - |
| 1777987983 | 17.22° C | 41% | 1003.7 hPa | - | - | - | - |
| 1777987383 | 17.22° C | 42% | 1003.9 hPa | - | - | - | - |
| 1777986783 | 17.22° C | 42% | 1003.8 hPa | - | - | - | - |
| 1777986183 | 17.22° C | 41% | 1003.9 hPa | - | - | - | - |
| 1777985583 | 17.22° C | 42% | 1004 hPa | - | - | - | - |
| 1777984982 | 17.22° C | 42% | 1004 hPa | - | - | - | - |
| 1777984382 | 17.22° C | 42% | 1004 hPa | - | - | - | - |
| 1777983781 | 17.22° C | 43% | 1004.1 hPa | - | - | - | - |
| 1777983191 | 17.22° C | 43% | 1004 hPa | - | - | - | - |
| 1777982591 | 17.78° C | 42% | 1004 hPa | - | - | - | - |
| 1777981990 | 17.78° C | 41% | 1004.1 hPa | - | - | - | - |
| 1777981390 | 17.78° C | 41% | 1004 hPa | - | - | - | - |
| 1777980789 | 18.33° C | 41% | 1004.1 hPa | - | - | - | - |
| 1777980189 | 18.33° C | 41% | 1004.1 hPa | - | - | - | - |
| 1777979589 | 18.33° C | 41% | 1004.1 hPa | - | - | - | - |
* Rain since midnight (hover to see other rain measurements)
** Current wind speed in m/s (hover to see current wind gust speed)